Tracking 19651 objects as of 22-Apr-2019
HD Live streaming from Space Station
objects crossing your sky now

RADUGA 2

Track RADUGA 2 now!
RADUGA 2 is classified as:


NORAD ID: 9416
Int'l Code: 1976-092A
Perigee: 35,677.4 km
Apogee: 35,920.5 km
Inclination: 9.8 °
Period: 1,436.4 minutes
Semi major axis: 42169 km
RCS: 0.1428 m2 (medium)
Launch date: September 11, 1976
Source: Commonwealth of Independent States (former USSR) (CIS)
Launch site: TYURATAM MISSILE AND SPACE COMPLEX (TTMTR)
aabbcc
Your satellite tracking list
Your tracking list is empty




NASA's NSSDC Master Catalog

Two Line Element Set (TLE):
1  9416U 76092A   19112.04235378 -.00000191  00000-0  00000+0 0  9991
2  9416   9.8434 305.7205 0028826 327.6708  34.7187  1.00253129103132
Source of the keplerian elements: AFSPC